Flag for U.S.A. Weather past 2 weeks in Babylon, New York, U.S.A.

Now
48 °F

Sunny.


Feels Like: 43 °F
Forecast: 36 / 56 °F
Wind: 13 mph from Northwest

Location: Republic Airport

Current Time: Apr 25, 2015 at 11:41:56 AM

Latest Report: Apr 25, 2015 at 10:53 AM


Visibility: 10 mi

Pressure: 29.86 "Hg

Humidity: 37%

Dew point: 23 °F

Location of BabylonLocation

Historic Weather in Babylon — Graph

°F

Babylon temperature yesterday

Maximum temperature yesterday: 48 °F (at 3:53 PM)
Minimum temperature yesterday: 38 °F (at 4:53 AM)
Average temperature yesterday: 42 °F

Past Weeks' High & Low Weather Summary

 TemperatureHumidityPressure
High74 °F (Apr 18, 12:53 PM)100% (Apr 10, 10:53 AM)30.50 "Hg (Apr 10, 10:53 AM)
Low36 °F (Apr 12, 5:53 AM)14% (Apr 15, 3:53 PM)29.55 "Hg (Apr 21, 2:53 AM)
Average53 °F58%30.01 "Hg
* Reported Apr 10 9:00 AM — Apr 25 9:53 AM, Babylon, Weather by CustomWeather, © 2015

Note: Actual official high and low records may vary slightly from our data, if they occured in-between our weather recording intervals... More about our weather records

Advertising

Babylon weather history for previous 24 hours

 ConditionsComfort  
Time TempWeatherWind HumidityBarometerVisibility
9:53 AM
Sat, Apr 25
46 °FSunny.9 mph40%29.87 "Hg10 mi
8:53 AM44 °FSunny.8 mph43%29.88 "Hg10 mi
7:53 AM40 °FSunny.13 mph51%29.90 "Hg10 mi
6:53 AM38 °FClear.8 mph53%29.90 "Hg10 mi
5:53 AM37 °FClear.9 mph54%29.90 "Hg10 mi
4:53 AM37 °FClear.7 mph54%29.89 "Hg10 mi
3:53 AM37 °FClear.7 mph54%29.89 "Hg10 mi
2:53 AM36 °FClear.7 mph57%29.89 "Hg10 mi
1:53 AM36 °FClear.3 mph54%29.90 "Hg10 mi
12:53 AM38 °FClear.8 mph48%29.91 "Hg10 mi
11:53 PM
Fri, Apr 24
39 °FClear.10 mph46%29.91 "Hg10 mi
10:53 PM40 °FClear.14 mph45%29.91 "Hg10 mi
9:53 PM40 °FClear.12 mph47%29.91 "Hg10 mi
8:53 PM42 °FClear.17 mph41%29.90 "Hg10 mi
6:53 PM45 °FSunny.17 mph37%29.86 "Hg10 mi
5:53 PM47 °FSunny.21 mph32%29.85 "Hg10 mi
4:53 PM48 °FSunny.18 mph32%29.84 "Hg10 mi
3:53 PM48 °FSunny.21 mph32%29.83 "Hg10 mi
2:53 PM46 °FOvercast.21 mph35%29.83 "Hg10 mi
1:53 PM45 °FOvercast.16 mph37%29.84 "Hg10 mi
12:53 PM44 °FOvercast.12 mph37%29.84 "Hg10 mi
11:53 AM44 °FOvercast.14 mph38%29.85 "Hg10 mi
Weather by CustomWeather, © 2015

See weather overviewHow to use our weather pages